Theta_e
346 346 347 346 346 346 345 343 343 345 346 346 345 343 342 343 342 341 341 340 339 338 336 335 335 334 334 335 336 337 337 338 339 341 342 342 338 334 338 342 343 344 344 344 343 343 342 341 341 342 342 344 344 343 344 343 343 343 342 343 343 344 344 343 342 341 341 341 340 340 340 339 339 339 339 340 340 340 341 341 341 341 341 340 340
346 347 346 346 346 345 344 343 343 345 346 346 346 343 342 343 342 341 341 340 340 338 336 336 335 334 333 333 335 335 335 337 339 340 341 341 341 337 337 340 342 343 343 343 343 343 342 341 341 342 342 344 344 343 343 343 343 342 342 343 344 344 343 342 341 341 341 341 340 339 339 338 338 338 339 339 339 340 340 340 341 341 341 341 340
345 346 346 346 346 345 344 343 342 344 345 345 346 344 342 343 343 341 341 340 340 339 338 338 338 338 336 336 336 336 336 337 338 340 339 339 340 339 338 338 340 341 341 342 344 343 343 342 341 342 342 342 344 344 343 343 343 342 343 343 344 344 342 342 342 341 341 341 340 340 340 339 338 340 340 340 340 340 340 339 340 340 341 341 340
345 345 345 345 345 345 344 343 342 344 346 346 346 346 342 342 342 341 341 341 341 340 339 340 340 341 341 340 339 338 338 338 337 339 338 336 338 337 336 337 339 339 340 341 343 344 343 343 344 343 341 342 344 344 343 344 343 342 343 343 344 343 342 342 343 343 342 341 340 341 341 339 340 341 340 341 340 340 340 339 339 340 341 341 341
345 344 345 345 345 345 344 343 342 343 346 345 346 347 343 341 342 341 340 341 341 341 339 341 342 341 340 341 340 339 338 337 335 335 335 334 334 334 334 336 338 339 339 341 343 345 345 345 345 343 342 344 345 343 343 343 343 343 343 343 344 344 343 343 343 344 344 342 341 342 343 341 342 343 341 340 340 339 339 338 338 339 339 340 340
344 344 344 345 344 344 344 343 342 343 345 345 345 347 345 342 342 342 341 341 341 342 340 341 341 339 339 340 340 340 339 337 334 333 333 332 332 333 333 335 338 339 341 342 344 345 345 345 344 342 343 345 345 343 343 343 344 345 344 344 344 344 344 344 344 345 345 343 343 344 345 344 345 344 342 341 340 339 339 337 338 337 338 339 339
343 344 344 344 344 344 344 343 342 342 344 344 345 347 346 345 344 343 343 342 342 342 342 342 340 338 339 339 340 341 341 339 336 334 334 334 333 333 334 335 337 338 341 343 344 345 345 345 344 343 343 344 344 344 344 344 345 346 345 344 344 344 344 345 344 345 346 345 345 346 346 346 345 344 343 342 341 341 340 337 337 336 337 337 338
342 342 343 343 343 344 343 343 342 342 343 344 345 346 347 346 346 345 344 343 344 343 343 343 340 338 339 339 340 341 341 340 339 339 338 337 335 334 334 335 337 338 340 342 343 344 345 344 344 343 343 342 343 343 344 345 346 346 346 345 345 345 345 344 344 344 346 346 346 347 346 346 346 345 343 344 343 342 340 338 338 337 336 337 337
342 342 342 343 343 343 343 342 341 342 343 343 344 345 347 347 347 346 343 342 344 344 343 342 341 340 340 340 340 341 341 342 341 342 341 339 337 335 335 335 336 337 338 341 342 343 344 344 343 343 342 342 343 343 344 345 346 346 346 346 345 345 345 345 344 344 345 346 347 347 347 346 346 345 345 344 344 343 342 340 340 339 339 339 339
342 342 342 342 343 343 342 342 341 342 343 343 344 345 346 347 347 347 344 341 343 344 344 343 342 342 342 342 342 342 342 342 342 343 343 341 339 337 336 335 336 336 337 338 339 340 342 343 343 343 342 342 342 342 344 345 346 346 346 346 345 345 345 344 344 345 345 345 347 347 347 346 345 345 345 345 344 344 344 343 342 342 342 341 341
341 341 342 342 343 343 342 341 341 341 342 343 343 344 346 346 347 347 346 344 344 343 344 344 343 343 344 344 344 344 343 342 343 343 344 344 342 342 340 338 337 336 336 337 337 339 340 342 343 343 342 342 341 342 343 345 346 346 346 346 345 344 344 344 344 345 345 345 346 347 347 346 345 345 344 344 345 344 344 344 344 344 343 344 344
341 341 341 342 342 342 342 341 340 342 342 343 343 344 345 346 346 347 347 347 346 344 343 343 343 343 344 345 345 345 344 344 343 343 343 343 343 344 344 342 338 337 337 337 337 338 339 342 343 343 342 342 342 342 343 345 346 347 348 347 344 343 344 344 344 344 345 346 347 346 346 346 347 346 344 344 344 344 344 344 344 344 344 344 344
341 341 341 341 341 341 341 341 341 342 342 342 343 344 345 345 345 347 347 347 347 347 344 341 342 343 344 344 345 346 345 345 344 343 343 344 344 344 345 343 339 337 337 337 337 337 338 340 342 342 342 343 343 343 343 344 347 348 348 347 343 342 343 343 343 344 344 346 346 345 345 345 347 346 346 345 345 345 345 346 346 345 345 345 345
341 341 341 341 341 340 341 341 341 342 342 342 343 343 344 344 345 346 347 347 347 348 346 342 340 341 343 345 346 346 345 345 345 345 344 344 345 345 345 343 339 336 337 336 336 337 337 339 341 342 342 343 344 344 344 345 347 347 347 346 343 342 344 343 343 343 343 344 344 344 344 345 346 347 347 347 346 347 347 347 348 347 347 347 347
343 341 340 341 341 341 341 341 341 340 340 342 343 343 344 344 344 345 346 346 347 348 348 345 340 339 342 344 346 346 346 346 347 347 346 345 345 346 346 344 339 336 337 336 336 337 337 339 340 340 342 343 343 344 344 345 345 345 347 347 345 345 346 344 343 342 343 342 342 343 343 344 346 347 348 348 348 348 348 348 348 348 348 347 347
346 342 340 340 340 340 340 341 340 340 340 341 342 342 343 343 343 344 344 345 346 347 347 345 341 338 339 342 345 346 347 348 349 349 348 347 347 347 347 345 341 337 337 336 336 337 339 340 340 339 340 342 342 343 344 345 344 344 346 347 346 346 347 347 345 344 344 343 342 342 342 344 346 348 349 349 349 349 349 349 348 348 348 348 348
348 346 342 340 340 339 340 340 340 340 340 340 341 341 342 342 342 344 344 344 345 345 345 343 341 338 338 339 342 345 347 348 349 349 348 348 348 349 348 348 345 341 340 337 336 339 342 343 341 340 340 340 342 343 343 345 345 345 345 345 345 345 347 348 347 345 344 344 342 342 342 343 346 348 349 349 348 349 350 349 349 349 349 350 350
349 348 344 340 339 339 340 340 340 340 339 339 340 340 341 342 342 342 344 344 344 344 344 342 341 338 337 338 340 343 346 348 349 349 349 348 348 349 349 348 347 345 343 341 339 340 343 345 343 341 339 339 341 342 343 345 345 346 345 344 344 345 345 346 345 344 343 343 343 342 341 342 343 346 349 349 349 349 349 350 350 350 350 350 351
349 349 346 341 338 339 339 339 340 340 340 339 339 340 341 341 342 342 343 344 344 343 342 341 341 339 338 337 338 341 343 345 347 348 349 349 348 349 349 348 348 346 346 345 343 341 342 345 345 343 341 340 341 343 343 344 344 345 344 343 343 343 342 343 343 342 342 342 343 342 342 342 342 344 347 348 349 349 349 350 350 351 351 351 352
349 349 347 343 340 339 338 339 339 339 340 340 340 341 341 341 342 343 343 345 345 344 342 341 341 340 340 338 338 340 342 343 344 345 347 348 348 349 349 348 348 347 347 347 346 344 343 345 347 346 344 343 345 346 345 345 345 344 343 342 342 342 341 341 341 341 342 342 342 342 342 342 343 344 345 347 349 349 350 350 350 351 351 351 352
349 350 348 343 339 339 339 339 340 340 341 341 341 341 341 341 342 342 343 344 345 345 344 343 341 341 341 341 339 339 341 342 342 342 344 347 348 349 349 348 348 347 347 347 347 346 345 345 347 348 347 347 348 348 347 347 347 346 345 344 343 342 342 342 342 342 341 341 341 341 342 342 343 344 346 348 350 350 351 350 350 350 350 350 351
346 348 350 347 342 340 340 340 342 344 344 344 343 342 341 341 342 343 344 345 345 346 346 345 343 342 342 342 341 340 340 341 342 341 342 344 346 347 348 348 348 347 348 347 347 347 347 346 346 348 349 349 349 349 349 349 348 348 347 346 344 343 342 342 342 342 342 342 342 342 342 341 341 342 343 346 349 350 350 349 348 346 346 349 351
346 347 349 350 349 345 343 341 341 343 345 346 347 347 346 344 343 342 343 344 345 346 347 347 346 345 343 342 342 341 340 341 342 341 341 341 343 346 348 348 347 347 348 348 348 348 348 347 346 347 349 349 349 349 349 350 349 349 348 347 346 345 343 343 342 342 343 345 344 343 343 343 342 342 342 345 348 348 348 347 346 346 348 350 352
347 346 347 349 350 350 348 345 342 341 342 344 345 347 348 348 348 347 346 345 345 346 347 348 348 348 347 345 343 342 341 341 341 341 340 340 341 344 347 347 346 346 347 348 348 348 349 349 348 347 348 348 349 349 349 350 350 349 349 348 348 347 345 343 343 343 344 346 346 345 344 344 343 343 344 346 347 346 347 348 348 349 352 352 353
349 348 347 348 348 348 349 349 346 344 342 342 343 344 345 347 348 349 349 348 347 347 348 348 348 349 349 347 345 343 343 342 342 341 340 340 341 343 344 344 344 345 346 346 346 347 349 350 350 349 348 348 349 349 349 349 348 347 347 348 350 349 347 346 346 345 344 346 346 346 345 345 344 344 344 345 346 347 349 350 351 351 352 351 352
349 349 349 349 349 348 349 350 350 349 346 344 343 343 344 344 344 346 347 348 348 347 347 349 349 349 349 350 347 344 343 343 342 341 340 340 340 341 342 342 343 343 344 345 346 348 349 350 350 349 348 348 349 350 349 348 348 347 347 347 349 350 349 349 349 348 347 347 347 347 347 348 347 345 345 346 347 348 350 351 351 351 351 351 351
347 348 348 349 349 349 349 349 349 350 350 348 345 343 344 344 344 345 345 346 347 347 347 347 349 350 349 350 349 346 343 344 343 342 340 339 339 339 340 341 341 342 343 345 347 349 350 351 350 350 348 348 348 349 349 349 349 349 348 348 349 349 349 349 350 350 350 349 349 349 348 349 349 348 347 348 348 349 350 350 350 350 351 352 352
346 346 347 348 348 348 348 348 349 349 350 349 348 346 345 344 344 345 345 346 347 348 348 347 349 350 350 350 350 348 345 344 343 342 341 341 340 339 339 340 341 341 343 345 347 350 351 351 351 350 349 348 349 350 350 350 349 350 350 350 349 349 349 349 349 350 350 350 350 350 350 349 350 350 348 347 347 348 349 349 350 350 351 351 351
345 346 346 348 348 348 348 348 348 348 348 349 349 348 347 346 345 345 345 346 346 346 347 346 347 349 350 350 351 349 346 344 344 343 342 341 341 340 340 340 341 342 344 346 349 351 352 351 351 351 350 350 350 351 350 349 349 349 350 350 350 350 350 350 350 350 350 351 351 351 351 351 351 350 349 349 348 349 351 351 351 351 351 351 351
344 344 345 346 347 348 347 347 348 347 348 348 348 348 348 347 346 345 345 346 346 346 346 346 346 347 348 349 351 350 347 344 344 344 343 342 342 342 341 341 341 342 343 346 349 351 351 351 351 351 351 352 351 351 350 349 349 349 349 350 350 349 350 350 349 349 350 350 350 350 350 350 351 352 352 351 351 352 352 352 352 351 351 351 350
343 344 345 345 346 346 346 347 347 347 348 348 348 348 348 347 347 346 346 346 347 348 348 347 347 346 345 348 350 351 349 346 344 344 344 344 343 343 344 343 343 342 342 344 348 351 351 350 350 350 351 351 351 351 351 350 349 350 350 350 350 349 349 349 349 349 349 349 349 349 348 349 350 352 353 353 353 353 353 353 352 351 350 349 349
343 343 344 344 345 345 346 346 346 347 348 348 348 348 348 348 348 347 347 348 349 351 351 350 348 347 346 346 348 351 351 348 345 344 344 345 344 344 344 345 345 345 344 344 346 349 350 350 350 350 350 350 350 350 351 350 351 350 350 350 350 350 349 349 349 349 349 348 348 347 348 348 350 352 352 353 353 353 352 352 351 350 349 348 348
343 343 343 343 343 344 345 346 346 346 347 348 348 348 348 348 348 348 348 349 350 352 353 352 351 349 347 345 347 352 354 351 347 344 344 345 345 346 345 344 344 345 346 346 347 348 349 350 350 350 349 349 349 349 350 350 350 351 350 350 350 350 350 350 350 350 349 349 348 348 349 349 350 352 353 352 352 352 352 352 351 349 349 348 348
342 342 342 342 342 343 343 344 344 345 346 347 348 348 349 349 349 349 349 349 350 350 352 353 352 351 349 346 347 350 352 353 351 349 347 347 347 348 348 347 346 345 344 347 349 349 349 349 350 350 350 349 349 348 349 350 351 351 350 350 350 349 349 350 350 350 350 349 349 349 349 350 351 352 352 351 350 350 350 350 349 349 348 347 347
341 341 340 339 339 340 341 341 343 343 344 345 346 347 348 348 349 349 349 350 350 350 351 351 351 351 351 350 348 349 350 351 352 352 352 351 350 349 349 348 346 344 342 345 349 350 350 350 350 350 349 349 348 348 348 349 351 352 352 351 350 349 349 350 350 350 350 349 349 350 350 351 352 352 352 350 348 348 348 348 348 348 348 347 346
339 338 337 337 337 338 339 340 341 341 342 344 345 346 347 348 349 348 348 348 348 349 350 349 349 350 351 352 352 351 350 350 352 353 351 351 351 350 349 347 345 344 345 345 347 348 349 350 349 349 349 349 348 348 348 348 350 351 351 351 351 350 349 349 349 349 349 350 350 351 351 352 351 352 352 350 347 345 345 345 346 345 345 345 344
337 336 335 335 336 336 337 337 338 339 340 341 343 344 346 346 346 346 346 346 347 347 347 348 348 349 349 350 351 349 347 348 350 351 349 349 350 350 350 349 347 347 347 346 347 348 349 349 349 349 349 349 349 349 348 349 349 349 349 350 350 350 350 349 349 349 349 350 350 350 351 351 350 351 352 350 347 345 345 344 343 343 343 343 343
335 335 334 334 335 334 334 334 334 335 337 339 340 342 344 344 344 344 345 346 347 347 346 346 347 348 347 347 347 347 346 347 348 349 348 349 350 350 350 350 348 347 347 348 349 349 349 349 350 350 350 349 349 349 349 350 350 350 350 350 350 350 350 350 349 349 349 350 350 350 350 351 351 351 352 351 348 347 346 345 344 344 345 345 344
333 333 334 333 333 333 332 331 331 332 335 337 338 340 341 341 342 343 344 345 345 344 345 346 346 347 347 345 345 345 345 345 346 347 347 348 348 349 350 350 349 349 349 350 350 349 349 349 350 350 351 350 350 350 350 350 350 350 350 350 350 351 351 350 350 349 349 349 349 349 349 350 351 350 350 351 350 348 348 346 345 345 346 346 346
331 331 333 332 332 331 330 328 328 330 333 335 337 338 339 340 340 341 341 341 341 342 342 344 345 345 345 344 343 344 343 343 344 345 345 345 345 346 347 347 347 347 347 348 348 347 347 347 347 348 350 350 350 350 350 351 351 350 351 350 350 350 350 350 349 349 349 349 349 349 349 349 349 349 349 349 349 349 349 348 347 347 347 347 347
329 329 330 330 329 329 328 326 325 325 328 331 334 336 337 337 338 339 338 338 339 340 340 341 342 341 341 341 341 341 341 342 342 343 343 344 344 344 344 344 344 344 344 344 345 345 345 345 344 345 346 346 347 347 348 348 349 349 350 350 350 350 349 350 350 349 349 349 349 349 348 348 347 348 348 349 349 350 350 349 349 349 347 346 346
326 325 325 325 325 326 326 323 321 322 323 326 329 332 334 335 336 336 336 336 337 337 338 338 338 338 339 339 339 339 339 340 340 341 341 342 343 343 343 343 344 344 344 344 344 345 345 345 345 345 345 346 346 347 347 348 348 348 349 349 349 349 349 349 350 350 349 349 350 349 349 348 348 347 347 347 347 348 348 349 349 348 345 345 347
320 318 317 318 319 319 319 318 318 319 321 321 323 325 328 330 331 331 332 333 335 335 335 335 336 336 336 336 336 337 337 338 339 339 339 340 341 341 342 343 344 344 344 345 345 345 345 345 345 345 345 345 346 347 347 348 348 348 348 348 348 348 348 348 349 349 349 349 349 348 349 349 349 348 347 346 346 346 347 348 348 345 343 344 347
314 313 313 313 313 312 313 313 313 315 318 319 320 321 321 321 322 324 326 329 331 332 333 333 333 333 333 333 333 333 335 336 336 336 337 337 338 338 339 341 342 343 344 344 344 344 344 344 344 344 344 345 345 346 346 346 346 346 346 346 346 346 347 347 346 346 347 347 347 347 347 348 348 347 347 347 346 347 348 349 347 342 340 342 346
315 315 315 315 314 312 312 312 311 312 313 314 317 319 318 318 320 321 322 323 325 327 329 330 330 330 331 330 330 330 331 332 331 332 333 333 334 335 335 336 338 340 342 343 343 343 343 343 343 343 343 343 343 343 342 342 342 341 341 342 342 342 343 343 343 343 344 344 345 346 346 346 347 347 347 347 347 347 349 348 344 340 339 342 344
316 316 316 315 315 314 313 312 312 312 311 311 312 314 315 317 320 321 321 321 322 322 323 324 325 326 327 327 327 327 326 325 325 325 325 326 327 328 330 332 334 337 341 342 342 342 342 342 342 341 341 341 340 339 339 338 337 336 336 337 337 338 339 340 340 341 342 342 343 344 345 347 347 347 348 347 347 347 348 346 343 341 342 343 343
316 317 316 315 314 314 313 313 312 311 311 310 310 311 312 314 316 317 317 318 320 320 320 321 323 323 324 324 324 324 324 323 323 321 319 320 321 321 324 328 332 336 339 340 339 339 339 338 339 338 337 336 335 334 333 332 331 331 331 331 331 331 332 333 334 336 339 340 341 342 343 345 345 346 347 348 348 347 347 344 343 342 341 340 341
318 318 318 318 317 316 315 313 312 312 311 309 307 307 309 311 312 313 314 314 315 316 318 320 322 323 324 324 323 323 323 322 321 320 317 318 318 318 322 328 333 335 337 337 336 336 336 336 335 334 333 332 332 331 330 329 329 329 329 328 329 328 326 325 326 328 330 333 335 337 339 341 343 344 343 341 342 342 341 339 339 338 336 337 340
318 317 319 320 320 320 318 317 316 316 315 314 310 306 306 308 310 311 312 312 311 311 313 317 320 321 322 323 322 322 321 320 321 320 318 317 317 316 319 326 332 335 336 335 335 334 333 332 331 330 332 333 333 332 331 330 328 326 323 321 323 327 327 323 320 319 321 324 324 324 327 333 336 336 334 333 333 334 334 334 334 334 335 338 340
316 316 319 322 324 324 323 322 321 320 319 319 315 310 307 305 306 309 310 311 311 310 310 314 317 319 320 321 321 322 321 321 321 321 318 316 316 316 317 319 324 328 331 331 332 333 332 331 331 331 332 333 332 332 331 328 325 323 318 312 312 318 323 323 320 316 315 317 317 316 318 326 331 332 333 335 335 334 334 335 336 336 337 339 339
319 319 321 323 324 324 324 324 324 323 322 321 319 316 312 307 304 305 307 308 310 310 311 314 316 318 320 322 322 322 322 321 321 320 319 317 316 317 318 317 317 319 320 321 323 324 326 326 326 325 324 324 325 326 326 325 323 321 317 311 307 308 312 315 318 316 312 312 314 315 320 328 333 334 336 338 337 336 337 337 338 338 337 337 336
Wind_Speed
27 26 26 24 23 22 21 20 19 16 14 14 16 15 15 15 15 16 15 15 16 17 17 17 18 18 19 19 18 17 16 15 14 13 11 12 15 17 16 15 14 13 12 11 10 8 7 6 6 6 6 5 6 7 8 8 9 9 8 5 3 3 4 4 3 3 4 3 2 3 4 2 1 2 1 1 2 4 4 4 4 3 2 1 1
27 28 28 26 25 24 23 22 21 18 15 16 17 16 16 16 16 17 16 16 17 17 18 17 17 18 18 18 17 17 15 14 13 12 11 11 13 15 15 14 13 13 12 11 9 7 6 5 5 5 5 5 5 6 7 7 9 10 8 5 4 4 5 4 2 1 3 3 2 3 4 2 0 1 0 2 3 4 5 4 4 3 2 2 2
28 29 29 28 28 26 25 24 22 20 17 17 18 16 16 17 18 19 18 17 17 18 18 17 16 16 15 16 16 15 14 13 12 11 11 11 12 14 15 14 13 12 12 10 8 7 6 5 4 3 3 5 5 5 6 6 8 9 7 5 4 4 4 3 2 1 1 2 3 4 5 3 2 2 3 4 5 5 5 4 4 3 2 2 4
29 29 29 29 29 28 27 26 24 22 19 19 19 17 17 18 19 20 20 18 18 18 17 17 16 14 14 14 14 13 12 12 12 12 12 12 13 14 14 14 12 11 10 9 7 6 6 5 4 3 4 5 5 5 6 6 7 8 7 6 4 4 4 3 2 3 2 2 2 4 5 4 4 4 5 6 6 6 6 5 4 3 2 3 4
31 31 31 30 31 30 28 27 26 24 22 21 20 18 17 19 20 21 21 19 19 18 17 17 16 15 16 15 14 14 13 13 14 14 14 13 14 14 14 14 12 10 9 8 7 6 5 5 4 5 6 6 5 6 6 6 7 7 7 6 5 4 3 2 2 3 3 2 2 4 4 3 4 5 5 4 4 6 7 6 4 4 4 4 4
34 33 33 32 32 31 30 29 28 25 23 22 20 19 17 18 19 20 21 20 20 19 18 18 18 18 19 18 18 17 16 16 15 15 15 14 13 14 14 14 13 11 9 8 7 6 5 5 5 6 7 6 6 7 7 7 7 7 7 7 6 4 3 2 1 2 2 1 1 3 3 3 4 5 5 3 2 4 6 6 4 3 4 5 5
33 33 34 33 32 32 32 31 29 27 24 22 21 20 18 18 18 19 20 20 20 20 20 19 19 20 20 19 18 17 17 16 14 14 13 12 12 13 13 13 13 12 10 9 8 7 6 6 6 7 8 8 7 7 8 7 7 7 7 7 6 5 4 1 1 1 1 1 1 1 2 3 4 5 4 3 3 4 5 4 3 2 4 5 6
33 33 34 34 34 34 33 32 30 28 26 23 22 21 20 19 17 17 18 20 20 20 21 21 21 21 20 19 18 17 15 13 13 13 12 11 12 13 13 12 12 12 11 10 9 8 7 7 7 7 8 8 8 8 8 8 7 6 7 7 7 7 5 3 1 2 2 2 2 1 1 2 3 4 4 3 3 4 4 4 2 1 2 3 5
35 35 35 35 35 34 33 31 29 29 27 25 23 21 21 20 18 17 17 18 20 21 22 22 22 21 20 19 18 16 14 12 11 11 11 11 12 12 13 13 13 13 12 12 11 9 8 7 8 8 9 8 8 8 8 7 7 7 7 8 8 8 7 5 3 3 4 4 3 3 2 2 2 2 3 3 3 3 4 4 4 3 2 2 3
35 35 36 36 35 34 33 31 29 28 28 26 23 22 22 21 20 18 16 17 19 21 23 23 23 22 21 19 18 16 14 13 13 12 12 12 12 12 12 13 13 13 13 13 12 11 10 9 9 9 9 8 8 9 9 8 7 7 8 8 9 9 8 6 5 4 5 5 5 5 4 3 3 3 2 2 1 2 3 3 3 3 3 3 3
36 36 37 37 36 35 34 32 30 29 28 27 25 23 22 22 21 19 18 17 18 19 22 24 24 23 22 20 18 17 15 15 15 14 14 14 13 12 11 12 13 14 14 14 13 12 12 11 11 11 10 9 9 9 9 8 8 8 8 9 9 9 9 8 7 6 6 6 5 5 5 5 5 5 5 4 3 2 2 3 3 3 3 4 4
37 36 36 37 37 36 35 34 32 32 31 29 27 25 23 22 22 21 20 19 18 18 20 23 24 24 23 22 20 18 17 16 16 15 15 15 14 13 12 12 14 15 15 15 14 14 13 13 12 12 12 11 10 10 10 9 9 9 9 9 10 10 10 10 9 8 8 7 6 6 6 6 6 6 6 6 5 4 4 5 5 5 5 5 6
36 37 37 38 38 38 37 36 34 34 33 31 29 27 25 23 23 22 21 21 20 19 19 21 24 25 24 24 22 21 19 18 16 15 16 15 15 14 13 13 15 16 16 15 14 14 14 13 13 13 12 11 10 10 10 10 9 9 9 10 10 10 10 10 10 10 10 9 8 8 7 7 7 7 7 6 6 6 5 5 5 6 6 6 6
35 37 38 39 40 39 38 37 36 36 34 32 30 28 26 25 24 23 22 21 22 21 20 21 23 25 25 25 24 24 22 20 18 17 16 16 15 15 14 14 15 16 15 14 13 14 14 13 13 13 12 11 11 11 11 10 11 10 9 9 10 9 9 10 10 10 11 11 11 10 10 9 9 8 8 7 6 6 6 6 6 6 6 6 6
34 36 38 40 41 40 39 38 37 37 35 34 32 29 28 26 24 23 22 22 23 23 22 22 23 24 25 26 26 25 24 22 21 19 18 18 17 16 16 15 15 16 15 14 13 14 15 14 14 14 13 12 11 11 11 11 12 12 10 10 10 9 9 9 10 10 10 11 12 11 11 11 11 10 9 7 7 6 6 7 7 7 7 7 7
32 35 37 39 40 40 39 39 38 37 36 35 33 31 29 27 25 24 22 21 22 23 23 23 23 24 24 25 26 26 26 24 22 21 20 19 18 17 16 15 16 16 15 15 14 14 15 15 15 14 14 12 12 12 12 12 13 13 12 11 11 10 9 9 9 9 9 10 11 12 11 11 11 11 10 9 7 6 7 7 8 8 8 9 9
31 33 36 38 39 39 39 39 39 39 37 36 34 32 30 27 25 24 23 22 22 23 24 24 24 24 25 25 26 26 26 25 23 22 20 20 19 18 16 16 16 16 15 15 14 14 14 15 15 14 14 13 12 12 12 12 12 13 13 13 12 11 11 10 10 9 9 10 12 12 12 12 12 11 10 9 8 7 7 7 7 7 8 9 10
30 30 33 36 37 38 39 39 39 39 38 36 34 32 30 28 26 25 24 23 22 23 24 25 24 25 25 26 26 26 25 24 23 22 21 20 20 19 18 17 16 16 15 14 14 15 15 14 14 14 14 14 14 14 13 13 13 13 13 13 12 12 12 12 12 11 10 11 12 13 13 13 12 12 11 10 9 8 8 8 7 7 7 8 9
31 29 30 33 36 37 38 39 40 39 38 37 35 33 32 30 28 27 25 23 21 22 24 25 25 25 25 26 26 26 25 23 22 22 22 22 20 19 19 18 17 16 16 14 14 15 16 15 15 14 15 15 15 15 15 14 14 14 14 13 13 12 13 13 13 12 11 12 13 13 13 13 13 13 12 11 11 10 10 9 9 8 8 8 8
29 29 30 32 34 35 36 38 39 40 39 37 36 36 34 32 30 28 27 25 22 22 24 25 25 25 25 25 26 26 25 24 23 22 23 22 21 19 19 18 17 17 17 16 15 16 16 16 16 15 15 15 15 16 16 15 15 15 14 13 13 13 14 13 12 12 12 13 14 13 13 13 13 13 12 12 11 11 11 11 10 10 10 10 9
15 21 25 29 31 31 32 36 38 39 39 39 38 38 36 34 33 30 28 27 25 24 24 24 24 25 25 25 26 26 25 24 23 23 23 23 22 20 19 19 19 18 18 17 17 17 17 17 16 16 16 16 16 16 16 16 16 15 14 14 14 14 14 13 12 12 13 13 14 14 13 13 14 14 13 12 12 12 13 13 13 13 12 11 10
10 11 11 18 26 27 27 30 32 33 36 38 39 39 38 37 34 32 30 29 27 24 23 23 23 23 24 25 26 26 26 25 24 23 23 22 22 21 20 21 20 20 19 18 18 18 18 18 18 17 17 16 16 15 15 16 16 15 15 15 15 15 14 14 13 13 12 13 13 14 13 12 13 14 13 12 11 11 12 13 13 13 11 10 9
12 13 8 7 14 19 22 27 31 32 33 34 35 36 38 38 37 35 32 30 28 25 23 23 23 23 23 24 25 26 26 26 25 24 23 22 22 21 21 22 21 20 20 19 19 18 19 19 19 18 18 17 16 16 16 16 16 16 15 15 15 15 14 14 14 13 12 13 13 13 13 12 12 13 12 11 11 11 11 11 10 10 9 8 8
11 16 15 11 11 13 16 21 28 32 33 34 36 36 36 36 36 37 36 33 30 27 25 24 24 23 23 24 26 26 26 26 26 25 24 23 22 21 21 22 21 21 21 20 19 19 19 20 19 19 18 17 17 17 16 16 16 16 16 15 15 15 15 15 14 13 13 13 13 13 12 11 11 12 11 11 11 12 12 11 10 9 8 8 8
10 12 14 15 17 19 18 18 22 27 30 32 35 38 39 39 38 37 37 36 35 32 30 28 27 25 24 25 26 26 27 27 27 26 25 24 23 22 22 22 22 21 21 20 20 20 20 19 19 18 18 18 17 17 17 17 17 17 16 16 15 15 15 14 14 13 13 13 14 13 12 11 12 12 11 11 12 12 12 12 11 10 9 9 8
8 9 11 12 15 19 19 19 20 22 25 28 32 35 38 39 40 39 38 37 36 34 33 32 31 30 28 26 26 27 27 27 27 27 26 24 23 23 22 22 22 21 21 20 20 20 19 19 18 18 18 18 17 17 17 17 17 17 17 17 16 16 15 14 14 13 13 13 13 13 12 12 12 12 12 11 12 12 12 12 12 11 10 9 9
4 5 7 10 12 12 13 16 19 21 23 25 29 32 35 38 40 40 39 38 36 36 35 34 33 32 31 29 27 27 27 27 28 27 26 25 24 24 23 23 22 22 21 20 19 19 18 17 17 18 18 18 17 17 17 17 16 17 17 17 17 16 16 15 15 15 14 13 13 13 13 13 12 12 11 11 12 12 12 12 11 10 10 11 10
4 2 1 3 5 6 7 11 16 20 25 28 28 27 31 37 41 41 40 39 38 37 35 34 33 33 33 31 29 28 28 27 27 27 27 26 25 24 24 24 23 23 22 21 20 18 17 16 17 17 17 17 17 18 18 18 17 17 17 17 16 16 16 16 16 16 15 15 14 14 14 13 13 13 12 12 12 12 12 12 11 10 10 11 11
8 6 5 4 2 1 3 7 12 16 21 28 30 28 27 32 38 41 42 41 41 39 37 35 34 34 33 32 30 29 29 28 28 27 27 27 25 25 24 24 24 24 23 22 20 18 17 17 17 17 17 17 17 18 18 18 18 17 17 17 16 17 17 17 17 16 16 16 16 15 14 14 13 13 13 13 12 12 12 13 12 11 11 12 12
12 10 8 7 5 3 2 5 10 12 15 20 25 28 29 30 32 37 41 43 43 42 40 40 37 33 32 35 34 31 29 29 28 28 27 26 26 25 25 25 25 25 24 23 22 20 18 18 18 18 18 18 18 17 17 17 17 17 17 17 17 17 18 18 18 18 18 17 17 16 16 15 14 14 13 13 13 13 14 14 13 13 13 14 13
15 12 10 9 8 7 5 4 6 10 14 16 18 22 27 30 32 34 38 42 44 44 44 44 41 34 32 35 35 32 30 29 29 28 27 27 26 26 25 25 26 26 26 25 23 22 20 19 19 19 19 19 19 17 16 15 16 16 17 18 18 18 18 19 19 19 19 19 18 17 17 16 16 15 15 14 14 14 14 14 14 13 13 14 14
16 15 13 12 10 9 8 7 5 7 10 14 16 18 22 27 31 35 38 41 43 43 43 45 43 38 34 33 33 33 31 30 30 29 28 27 27 27 26 26 26 26 26 27 26 24 23 22 21 21 21 21 20 18 16 16 16 16 17 18 19 19 19 20 20 20 20 20 19 18 18 17 16 16 16 16 16 16 16 15 14 13 13 14 14
16 15 14 12 10 9 8 8 8 7 7 10 13 15 18 22 26 30 35 37 39 39 41 43 42 40 36 32 32 32 31 29 30 30 28 27 27 27 27 26 26 26 27 28 28 27 25 24 24 23 23 22 21 20 19 18 17 17 18 19 20 20 20 20 20 20 20 20 20 20 19 18 17 17 17 18 18 18 17 16 15 14 14 15 15
15 14 14 13 12 11 10 9 8 8 7 8 11 13 15 17 20 24 28 32 34 35 37 39 40 39 37 33 30 30 30 30 30 30 29 27 26 26 26 26 26 26 27 28 29 29 27 26 25 24 24 24 23 22 21 21 20 19 19 20 21 21 21 21 20 20 20 20 21 21 21 20 19 18 18 18 18 17 17 17 15 15 14 14 13
14 14 16 17 17 16 15 13 10 9 9 8 7 9 12 14 18 21 24 27 31 33 34 35 37 38 36 32 28 28 29 30 29 27 27 26 24 24 25 25 25 25 26 27 27 28 28 27 24 23 23 24 23 23 23 23 23 22 21 21 22 22 22 22 21 21 20 20 20 21 22 22 20 19 19 18 16 15 15 15 15 15 15 14 14
15 15 18 20 19 18 17 17 15 12 11 10 7 3 8 11 14 15 14 14 19 26 29 29 28 29 29 28 27 27 28 28 27 24 24 23 23 23 23 22 21 21 23 24 25 28 29 27 25 23 24 25 25 24 25 25 25 25 24 24 23 23 23 23 23 22 22 21 21 22 23 23 22 20 19 18 17 15 14 15 15 16 16 17 17
15 16 17 18 18 18 18 18 18 18 17 15 12 6 1 4 7 9 8 6 8 14 17 20 20 17 17 18 20 20 19 20 20 20 22 22 22 21 20 18 18 19 19 19 21 25 26 25 23 23 24 25 26 26 26 26 26 26 27 27 27 26 25 25 24 24 23 23 23 23 24 25 24 23 21 20 19 17 16 17 16 16 17 17 18
12 13 14 15 16 17 18 18 19 20 20 18 14 9 5 5 4 2 2 3 3 4 5 9 12 11 10 10 11 12 13 14 14 16 18 20 21 20 18 18 18 18 18 18 19 22 23 22 22 22 23 24 25 25 26 26 27 27 28 29 29 29 29 28 27 26 26 26 25 25 25 27 27 25 23 22 22 21 19 19 18 18 17 18 18
10 11 11 13 14 14 15 17 18 19 19 17 15 12 9 9 9 7 6 7 7 5 3 3 4 5 5 7 9 11 12 13 15 15 16 16 18 19 18 17 18 18 18 18 20 21 23 23 24 24 24 26 27 26 27 27 28 28 29 30 30 31 31 31 30 30 29 29 28 27 27 29 29 27 24 23 24 24 23 21 20 20 19 19 19
9 10 10 10 11 11 13 16 18 18 17 16 15 14 13 13 11 10 11 14 14 10 7 4 2 0 3 5 7 8 9 9 12 15 15 16 17 18 18 18 19 20 20 20 21 23 25 26 26 26 26 27 27 28 29 30 30 31 31 32 32 32 33 33 33 33 33 32 31 30 30 30 29 27 24 24 25 25 25 24 22 22 21 20 19
8 9 9 9 9 10 12 14 16 16 15 14 14 14 15 14 14 15 16 17 16 14 12 10 8 6 5 4 3 3 4 5 7 9 12 13 16 17 18 19 20 22 22 22 23 25 27 28 29 30 30 30 29 30 31 32 32 32 33 34 34 34 33 33 33 34 35 35 34 33 32 31 29 27 26 27 27 27 27 26 25 23 21 20 20
7 8 8 8 9 9 10 12 13 15 15 14 13 13 13 13 14 17 18 17 15 14 13 13 12 12 10 8 7 6 6 6 6 6 7 9 11 13 14 15 17 18 20 21 22 24 26 28 30 30 30 29 29 29 29 30 31 31 32 34 35 35 35 34 34 36 37 37 37 36 34 32 30 29 29 29 29 29 30 28 24 21 19 18 18
6 7 8 9 10 10 11 11 12 13 14 14 13 13 12 12 15 17 16 15 14 13 12 12 12 12 11 10 9 9 9 8 7 7 7 7 7 8 9 10 12 13 14 16 18 19 21 23 24 25 24 24 23 23 24 25 26 27 28 29 30 31 32 32 33 34 36 37 37 37 36 35 34 33 33 32 30 31 30 26 21 17 16 16 16
8 10 11 11 11 12 12 11 10 11 11 11 12 12 11 12 14 14 12 11 12 12 11 11 11 11 11 11 11 10 10 8 8 8 8 8 8 8 7 8 10 12 12 13 13 13 14 16 17 17 17 17 17 17 17 18 18 19 19 20 22 23 24 26 27 29 31 32 33 34 35 35 35 36 38 35 32 30 27 22 18 16 16 16 16
9 11 11 11 12 13 13 12 11 11 11 10 10 10 10 10 12 11 10 10 10 9 9 10 10 10 10 10 10 9 9 9 8 8 7 7 8 8 8 8 8 9 11 12 12 11 11 12 12 11 11 11 11 11 10 10 10 10 11 12 14 16 17 19 21 23 26 28 29 29 30 30 31 34 37 37 33 29 25 22 19 17 17 16 16
10 11 12 12 11 12 12 12 12 12 12 12 11 10 9 9 9 8 9 9 9 8 8 8 8 9 9 9 9 9 9 10 10 10 9 9 9 8 8 9 9 7 7 9 9 9 9 9 8 7 6 5 5 4 3 3 4 5 6 7 8 9 11 12 13 15 18 21 23 25 27 29 30 33 35 35 33 29 26 23 19 16 16 16 16
10 11 12 12 12 12 12 12 12 12 13 13 12 11 10 8 7 7 7 8 8 8 9 8 8 8 8 9 9 10 10 11 11 11 11 10 9 9 8 8 8 7 4 4 4 3 4 4 4 4 4 4 3 3 3 4 5 6 6 6 7 7 8 8 9 11 12 12 14 19 24 28 30 32 33 32 31 28 24 20 17 15 16 15 14
8 10 11 11 11 12 12 13 13 14 14 14 14 13 11 9 8 8 7 8 8 8 9 9 9 9 9 9 10 11 11 12 13 12 12 11 9 8 7 7 7 6 4 2 3 3 2 1 2 4 6 6 6 6 5 5 6 6 7 8 8 8 9 9 8 9 10 10 8 8 13 19 25 25 23 22 22 20 17 15 14 14 15 14 13
5 7 9 9 9 10 11 11 12 13 14 15 15 14 13 11 10 8 8 8 8 8 8 9 9 9 9 9 10 11 11 12 12 12 13 12 10 9 8 7 6 6 5 4 4 3 3 4 5 5 6 6 6 6 6 6 7 9 10 10 9 10 10 10 10 10 10 9 7 6 2 5 12 14 12 12 13 14 13 12 12 12 13 13 13
3 4 6 8 9 10 10 10 10 11 12 13 14 15 14 13 11 10 9 8 8 7 7 8 8 9 9 9 9 10 10 11 11 12 12 12 11 10 8 6 5 5 5 5 4 3 3 3 3 3 3 5 6 7 9 10 11 13 13 11 10 9 10 10 10 10 10 9 7 5 4 3 5 8 10 11 12 12 13 13 12 12 13 14 14
2 3 4 6 7 9 10 10 11 11 11 11 12 13 13 13 12 11 10 9 9 7 7 7 8 8 8 8 8 8 9 9 11 12 12 12 11 10 8 7 6 5 5 5 5 4 3 2 3 4 5 7 8 10 11 12 13 14 14 13 10 8 8 9 9 9 9 7 6 4 1 2 5 7 9 10 11 11 12 13 14 15 16 15 15
Wind_Direction
215 217 217 219 221 225 223 216 212 203 194 195 197 197 199 202 199 190 185 183 182 180 177 175 173 172 174 174 172 171 168 166 165 162 160 167 174 174 172 174 175 174 174 173 170 167 165 165 167 164 158 159 172 186 197 208 215 221 226 238 265 296 312 306 302 275 229 231 286 312 326 322 204 175 198 250 329 338 331 324 322 316 308 321 319
217 219 220 220 220 222 221 215 211 205 197 198 198 196 197 201 200 194 190 187 184 184 182 180 178 177 178 176 173 173 171 168 167 165 162 170 180 184 183 185 185 182 180 177 172 168 169 171 172 168 167 171 180 189 196 204 211 216 221 233 263 299 307 299 324 317 218 233 310 347 352 347 64 110 34 341 338 333 323 314 309 301 287 288 277
216 219 220 220 219 219 218 216 213 208 202 198 197 196 198 199 198 197 196 193 188 187 187 183 182 181 180 180 178 175 174 173 172 172 171 172 181 190 193 195 195 191 185 179 174 174 176 176 176 180 190 196 199 198 195 194 199 207 217 230 258 295 300 286 314 327 230 251 302 350 4 5 12 10 348 338 334 331 319 308 299 283 270 279 267
214 217 219 217 217 217 217 216 213 209 205 199 196 198 199 196 196 197 198 197 193 191 190 186 186 186 181 179 178 176 176 177 178 180 179 177 182 189 194 198 201 198 188 182 182 185 188 189 200 217 209 206 208 203 195 190 192 203 218 231 252 285 286 270 291 301 303 301 314 346 353 350 352 344 329 322 321 325 320 308 290 264 261 271 260
213 215 216 215 215 216 218 217 214 210 207 203 200 200 198 193 194 197 199 200 198 196 194 191 189 186 178 175 177 176 176 180 182 181 180 179 183 188 191 196 202 201 193 189 191 198 203 209 225 221 203 198 203 203 198 193 196 207 219 229 244 273 276 268 290 306 319 323 322 342 348 343 345 341 334 326 313 319 322 313 290 254 249 257 257
214 215 216 215 215 217 218 217 215 213 212 209 205 203 198 193 193 196 200 201 201 200 197 195 191 184 179 177 178 178 179 182 182 180 180 181 184 188 191 196 200 201 200 199 202 209 217 220 223 215 203 198 201 204 202 198 200 208 215 223 236 256 261 272 306 325 346 355 332 349 10 2 353 352 351 347 321 325 329 320 298 260 252 259 266
214 215 215 214 215 216 217 217 216 216 215 213 210 207 201 196 195 196 199 202 203 202 199 198 193 186 185 184 183 184 184 184 183 183 184 187 190 192 195 199 201 202 205 206 209 214 220 220 215 213 209 205 202 204 205 205 208 211 216 223 230 239 241 248 310 315 337 360 314 6 38 21 9 13 14 8 350 346 343 332 311 268 270 276 274
212 212 213 213 215 216 217 217 218 217 216 215 213 211 205 200 199 198 198 201 203 203 202 201 196 192 191 190 190 193 193 189 187 189 191 194 198 199 202 205 206 208 209 211 212 215 218 218 215 213 211 209 206 207 209 212 217 219 224 230 227 227 232 236 260 282 282 278 272 294 360 10 7 23 40 38 18 7 3 356 353 331 296 282 271
214 213 213 213 215 217 217 217 217 217 216 217 217 214 210 204 201 199 197 200 203 205 205 204 202 199 198 197 197 199 200 198 195 196 197 198 201 204 209 212 213 215 216 217 217 216 217 219 219 214 210 212 212 210 212 216 224 224 226 233 227 222 228 234 241 253 259 266 266 266 282 299 317 357 35 43 34 25 19 16 13 11 355 329 299
215 215 214 215 216 217 217 216 216 216 216 219 219 216 212 207 204 200 197 199 202 205 207 208 206 205 205 205 203 202 201 201 202 202 201 201 202 204 211 217 218 220 221 222 221 219 217 219 220 214 208 211 215 214 213 219 230 229 227 233 231 226 230 234 239 243 247 256 259 260 273 281 280 289 316 345 10 23 17 13 12 7 355 352 338
213 214 214 214 216 217 216 216 216 215 216 217 217 216 214 210 207 203 200 201 203 206 209 210 209 209 210 211 210 208 205 204 205 204 205 206 205 205 212 219 222 223 224 225 224 220 217 216 218 216 209 208 213 215 216 224 236 235 232 237 236 233 235 236 237 239 244 253 259 267 276 281 279 281 287 294 306 327 335 333 337 331 322 323 320
211 211 211 211 212 213 214 215 215 214 214 215 215 215 214 213 211 208 206 205 207 210 212 213 213 213 213 215 217 216 214 213 210 207 209 211 210 211 216 223 226 225 226 227 225 223 221 218 219 219 214 211 213 217 223 231 237 236 235 240 241 239 238 239 238 237 243 250 259 273 283 287 285 283 283 283 291 303 312 316 315 312 307 305 309
209 209 209 210 210 210 211 213 214 214 215 215 215 215 214 214 213 212 211 210 210 213 215 217 217 216 216 217 219 222 222 222 220 216 214 216 218 221 224 228 230 228 228 228 225 225 226 223 224 224 221 218 217 221 228 232 232 234 237 241 243 240 239 241 239 237 242 246 254 266 276 284 284 281 279 278 285 293 303 314 316 314 312 311 314
209 209 210 211 212 212 212 214 214 215 217 217 215 215 215 215 214 214 215 214 214 215 217 220 221 219 217 218 220 224 226 228 229 227 224 223 225 228 231 233 234 233 233 231 227 226 228 226 226 226 224 223 222 226 230 229 231 235 238 241 241 241 243 245 242 239 242 245 251 259 267 274 276 276 275 276 284 292 299 306 310 312 316 318 323
209 211 211 212 214 214 214 215 216 217 218 218 217 216 216 217 216 216 217 217 218 218 220 223 224 222 219 219 220 223 225 229 233 235 233 230 229 231 234 235 236 236 235 234 230 228 227 226 225 224 225 226 227 231 232 232 235 237 238 242 241 241 246 248 243 241 245 248 250 254 259 264 267 269 270 272 278 287 294 296 302 311 316 319 322
210 211 212 213 214 216 216 217 218 219 219 219 219 218 219 219 218 218 220 221 222 221 223 226 226 224 222 221 222 222 223 227 232 236 235 232 232 233 234 236 236 236 237 235 232 231 229 226 225 225 226 228 230 232 232 233 236 236 238 242 241 241 244 245 242 242 248 253 254 254 255 256 258 262 265 270 272 278 287 291 300 311 317 322 323
211 212 213 214 214 215 218 219 219 220 220 221 222 223 223 222 221 220 221 224 225 224 225 227 228 226 224 223 223 223 223 226 231 235 235 234 235 235 235 235 235 236 235 233 232 231 229 226 226 228 229 230 232 232 231 232 236 238 239 240 238 238 240 241 241 242 247 253 255 256 255 254 255 257 261 267 270 272 279 287 298 308 315 322 324
213 215 214 214 215 216 218 220 222 223 223 224 225 226 227 226 224 222 222 223 226 226 226 227 229 229 227 225 225 225 225 227 231 234 235 236 237 237 235 232 232 232 232 231 230 229 228 228 228 230 230 230 231 233 233 233 237 240 241 240 238 239 241 241 241 244 248 252 253 253 253 253 255 256 258 264 267 266 268 276 289 300 307 314 318
211 214 214 213 214 217 218 220 223 224 225 226 227 227 227 228 227 225 226 227 229 229 227 227 229 230 229 228 227 226 227 229 231 234 234 236 238 239 238 235 231 229 229 230 229 228 228 230 231 231 231 230 230 233 233 234 238 241 241 241 239 241 243 242 243 245 247 251 251 250 249 250 253 256 257 262 266 267 266 270 277 285 293 299 306
209 209 211 213 213 216 218 221 223 224 225 226 227 228 228 228 228 226 227 228 228 228 226 227 228 228 230 229 228 227 228 230 232 233 234 234 235 240 242 241 236 231 230 232 232 231 231 232 233 233 232 230 231 233 234 235 238 241 243 243 242 243 242 242 246 248 249 251 252 251 248 249 251 254 256 261 267 270 271 271 274 278 283 288 294
215 207 206 209 211 214 217 221 223 223 224 225 226 228 229 229 229 228 227 227 227 226 225 227 228 228 229 229 228 227 228 230 231 232 234 233 234 239 244 246 241 236 234 234 235 236 237 237 236 235 233 233 234 236 237 238 240 242 244 245 244 244 244 244 246 249 252 254 256 256 254 252 252 252 253 258 265 272 273 273 274 274 276 279 284
220 211 198 199 203 209 213 215 217 219 220 223 225 228 229 230 231 229 227 227 227 226 225 227 228 228 230 230 229 229 229 231 232 232 233 234 235 238 242 244 242 238 237 237 238 240 242 242 240 238 237 238 239 240 240 241 243 245 245 245 245 245 246 247 248 248 250 253 255 256 256 255 254 252 251 255 262 268 268 268 269 271 272 272 275
196 205 207 192 189 201 214 215 215 217 219 221 224 226 228 231 232 232 230 229 229 227 227 228 229 230 231 231 231 231 231 232 233 233 232 233 234 236 239 241 240 238 238 239 241 243 245 245 243 242 242 242 243 243 242 243 245 247 248 246 245 244 244 245 246 245 244 246 251 253 251 250 250 250 248 249 255 257 254 255 262 266 267 265 268
163 190 210 219 197 200 219 221 219 220 220 222 223 225 227 228 229 230 231 231 230 229 229 229 231 232 232 233 232 232 232 232 233 233 231 230 232 234 237 238 237 237 239 241 243 245 245 245 244 243 243 244 245 245 244 244 245 248 249 247 245 245 245 244 244 243 241 242 248 251 249 247 247 247 246 246 248 245 241 245 252 254 255 258 263
159 173 195 213 215 218 228 231 228 226 226 226 228 230 231 231 231 231 231 231 230 229 230 231 233 234 234 234 234 233 233 232 232 233 232 231 230 233 236 237 236 237 239 241 242 242 243 244 244 243 243 244 245 245 245 244 245 246 247 246 244 243 244 245 245 244 241 241 244 246 247 248 248 248 248 247 246 241 236 240 246 247 250 254 255
168 170 177 193 211 226 237 242 241 238 235 233 232 233 234 236 237 236 236 236 234 233 233 233 233 235 236 237 236 235 234 234 234 233 233 231 230 232 235 235 235 237 239 241 241 241 242 244 245 245 243 243 244 244 244 244 244 245 245 245 242 240 241 243 244 245 244 241 243 244 245 248 250 250 251 250 247 242 240 243 247 249 250 248 248
148 170 185 195 204 219 240 250 252 252 248 241 236 235 238 240 240 239 238 239 239 237 236 236 236 236 237 238 238 236 235 236 236 234 233 232 231 231 233 234 235 237 238 239 240 240 242 246 248 248 246 245 245 245 245 246 245 245 246 245 242 240 240 242 245 246 245 244 243 243 245 248 249 250 251 252 250 248 246 246 248 252 250 246 248
51 67 128 216 227 231 246 254 253 254 252 248 241 237 239 240 241 241 240 239 238 237 237 240 242 240 238 238 238 237 235 235 236 236 234 233 233 233 233 234 236 238 238 238 237 238 241 246 250 250 249 248 248 248 248 247 246 246 247 245 243 242 242 244 246 248 248 247 246 245 246 246 247 249 251 251 250 248 246 245 247 250 250 250 253
30 32 46 48 26 326 276 257 251 249 248 246 241 238 238 238 239 240 240 240 241 239 237 239 242 245 244 241 239 237 234 233 234 235 235 235 236 236 237 238 240 241 241 238 235 235 240 245 248 249 249 249 251 252 251 249 247 247 248 248 246 245 246 247 249 249 249 248 247 248 248 246 247 249 251 251 248 244 243 245 247 249 251 255 258
30 27 34 45 44 29 336 271 259 256 253 247 242 238 238 240 241 240 239 240 241 240 238 235 235 240 246 246 243 239 235 232 231 232 233 235 238 240 242 242 243 244 243 240 238 238 239 241 244 246 248 250 252 254 253 250 248 247 249 250 250 250 250 251 252 252 251 249 248 248 248 248 249 249 249 248 246 244 245 248 249 250 253 257 259
37 35 36 39 35 25 5 322 278 261 256 253 247 241 238 239 240 240 240 241 241 240 239 237 233 232 237 243 245 243 237 232 229 229 230 231 233 236 239 240 241 243 243 242 240 240 239 237 239 243 247 251 253 254 253 251 250 249 249 250 251 253 253 253 253 254 254 253 253 252 250 248 248 248 247 246 246 247 249 252 254 254 255 257 259
43 42 44 45 44 40 25 2 326 284 261 253 250 247 243 241 241 241 241 241 240 239 238 237 233 229 230 238 245 245 240 234 230 228 228 228 230 231 231 233 236 239 242 242 241 241 240 238 240 244 249 253 256 256 254 252 252 252 253 254 255 256 256 255 255 256 256 257 257 256 252 247 244 246 248 247 247 247 249 253 255 255 255 258 261
47 46 45 39 32 27 19 8 356 335 297 266 257 253 250 249 247 246 245 244 243 241 237 235 232 229 228 231 237 240 240 236 233 230 229 228 229 230 231 234 234 235 238 241 243 243 240 239 242 246 250 254 257 257 254 253 253 253 255 258 260 260 259 258 257 258 259 260 259 258 254 249 245 244 247 250 249 248 249 252 254 255 257 260 263
48 42 35 26 19 18 14 10 6 353 327 291 268 257 256 259 257 255 253 250 248 246 241 236 233 231 228 226 230 236 239 237 233 231 230 229 228 230 234 238 238 236 236 238 242 245 242 239 243 248 252 254 255 254 253 252 253 255 257 260 262 262 261 258 257 259 261 262 262 260 256 251 246 242 244 249 250 249 250 251 253 255 256 258 262
43 37 36 33 29 29 27 22 16 6 358 341 294 256 247 253 253 250 251 249 246 244 241 237 234 231 227 224 226 230 233 233 233 233 234 233 233 236 239 242 242 242 242 240 242 246 244 241 243 249 254 255 254 253 252 252 253 256 257 259 259 260 260 258 258 259 261 264 265 263 258 252 246 243 244 246 247 248 250 252 254 255 255 258 265
44 41 41 40 36 35 34 30 27 26 28 24 7 290 235 234 232 231 239 239 227 225 226 224 224 224 223 222 223 224 225 226 230 238 243 242 241 243 246 248 247 247 247 244 241 242 242 241 243 247 253 255 254 253 251 250 252 254 255 256 257 258 259 259 260 261 262 264 266 265 261 254 246 243 244 245 244 246 252 256 257 258 261 265 271
46 42 40 41 41 41 40 36 36 38 38 33 26 22 236 230 233 232 246 249 213 206 210 209 209 214 220 225 228 229 229 228 233 243 249 247 244 243 245 247 247 248 250 247 243 243 245 245 245 248 253 256 257 256 254 252 252 253 255 256 256 256 258 259 260 262 263 264 265 266 263 256 247 241 243 245 244 248 256 261 261 264 269 273 275
42 39 39 42 41 40 38 36 38 39 36 31 26 25 50 78 84 137 223 230 203 196 206 206 208 214 224 230 233 235 238 238 238 243 248 248 246 244 245 247 249 251 253 251 249 251 253 253 252 253 255 257 260 261 260 258 256 256 256 256 256 257 258 259 260 262 263 263 262 263 262 257 249 243 242 245 246 249 255 260 261 266 273 279 281
45 39 40 41 38 36 35 33 35 36 34 31 27 23 33 55 63 66 76 87 95 97 105 145 178 202 235 259 264 262 258 250 243 241 245 248 249 247 247 248 250 253 252 252 254 257 259 259 260 259 258 259 260 260 259 258 257 257 257 257 257 257 257 258 260 262 262 260 259 258 257 255 252 247 243 244 247 249 253 256 259 265 273 280 282
54 44 39 35 33 35 35 32 33 31 29 28 27 29 39 51 56 61 66 67 68 67 65 66 75 16 298 292 284 280 278 271 262 258 259 261 261 259 257 255 256 258 258 257 258 259 260 262 263 263 262 261 261 259 258 257 256 256 257 258 258 256 256 257 258 258 259 260 259 257 255 255 256 253 248 246 248 250 251 252 256 263 270 277 279
53 43 35 27 27 36 38 35 32 28 28 28 26 32 45 51 55 60 59 56 58 62 63 64 65 60 48 28 356 323 311 308 298 286 279 276 273 271 268 263 261 261 262 262 261 262 263 264 264 265 265 264 262 260 259 259 258 257 257 257 257 256 255 254 254 255 256 257 257 257 256 255 254 253 251 249 248 249 250 251 254 260 267 274 275
46 38 30 22 25 35 40 38 33 29 29 29 26 33 44 46 49 55 53 49 51 55 56 58 60 61 60 54 40 29 24 10 348 326 310 297 286 279 275 272 268 265 264 264 263 262 262 263 263 263 263 263 263 261 260 261 262 261 260 259 260 260 259 257 256 255 256 256 256 257 256 254 251 248 248 249 248 248 249 250 250 253 262 270 269
43 42 39 33 30 33 38 39 38 34 32 31 29 32 38 45 50 53 50 45 45 46 45 47 50 51 54 53 45 41 41 36 23 13 3 344 323 304 291 280 271 266 265 265 261 258 257 258 260 262 262 262 263 262 262 262 262 262 261 260 262 263 264 264 263 261 259 258 258 257 256 255 252 248 247 247 247 248 248 247 245 249 261 270 266
59 59 56 48 40 37 38 37 38 39 36 34 34 31 32 44 52 50 45 40 38 35 34 36 40 43 46 48 45 43 43 44 40 34 25 12 1 349 330 304 281 269 266 266 263 258 255 256 259 261 260 258 256 256 257 258 259 261 262 263 265 267 268 268 268 267 264 262 260 259 257 256 254 252 249 246 243 242 242 240 241 248 257 261 259
67 63 58 53 46 41 38 36 37 38 35 33 33 27 27 42 49 46 44 43 36 26 20 20 24 27 29 30 31 29 28 26 24 20 14 7 6 7 4 350 325 293 274 266 260 255 251 251 252 253 251 248 247 249 254 259 267 276 279 279 279 277 277 276 272 268 265 261 259 258 257 258 258 253 248 242 236 235 235 235 238 245 249 251 253
65 60 56 53 48 41 39 35 32 31 30 30 31 27 25 34 39 33 32 34 30 21 15 14 14 16 16 15 14 13 13 13 11 7 3 357 351 351 357 6 5 343 287 258 247 242 242 239 233 225 220 223 232 247 273 299 313 319 318 310 300 294 293 292 290 286 279 269 261 255 254 256 252 241 235 234 231 226 225 225 226 234 240 242 245
66 59 55 55 52 47 43 38 34 31 28 26 24 22 19 18 16 14 14 15 16 15 15 13 13 13 13 12 11 13 15 15 15 14 14 9 360 352 351 360 12 10 325 263 250 247 246 242 227 190 156 141 123 85 50 30 17 6 357 346 336 328 322 318 321 323 319 307 284 260 249 246 237 224 221 226 223 215 213 214 214 221 232 232 230
67 57 51 50 52 51 46 42 39 36 31 28 26 24 20 12 3 360 1 2 5 8 11 11 10 8 7 7 9 10 12 12 15 19 22 23 20 17 13 15 25 31 28 6 350 343 355 64 111 113 102 91 80 70 58 42 25 7 352 340 333 333 334 333 334 336 339 342 329 285 252 239 230 218 211 213 207 199 201 209 209 214 217 210 201
59 52 45 45 50 50 46 42 38 34 30 28 26 25 24 23 15 5 358 357 359 1 6 10 9 4 0 360 1 0 2 7 13 18 22 25 29 33 36 37 41 47 50 44 33 32 59 84 92 85 66 45 37 34 25 8 353 344 340 334 325 321 322 327 335 338 337 340 347 356 356 224 215 203 190 188 188 185 188 194 195 196 192 185 184
41 34 40 50 52 46 40 35 30 26 25 24 23 23 24 24 24 18 8 360 355 356 1 6 6 4 2 0 358 356 358 2 5 8 13 18 23 31 39 44 46 45 38 36 46 63 81 91 87 59 20 357 349 340 331 324 322 324 329 332 329 321 316 318 328 334 333 331 334 352 29 87 154 168 174 184 187 186 183 178 173 174 177 178 182
40 45 63 63 47 36 33 29 24 21 19 16 17 20 20 22 26 28 25 17 8 1 358 360 2 2 1 360 360 359 359 358 357 358 0 5 12 20 30 39 45 45 35 24 20 18 3 332 326 335 335 327 320 314 310 309 311 316 321 326 329 326 318 316 319 323 324 328 330 329 340 132 156 174 186 190 188 186 182 173 168 171 174 176 178